Weather History for KMMH - September, 2013

Change the Weather History Date:

Sunday, September 22, 2013

  Actual Average (KBIH) Record (KBIH)
Temperature  
Mean Temperature 47 °F 66 °F  
Max Temperature 64 °F 86 °F 98 °F (1949)
Min Temperature 30 °F 45 °F 29 °F (1945)
Degree Days  
Heating Degree Days 18 2  
Month to date heating degree days 19  
Since 1 July heating degree days 21  
Cooling Degree Days 0 2  
Month to date cooling degree days 105  
Year to date cooling degree days 1082  
Moisture  
Dew Point 26 °F    
Average Humidity 51    
Maximum Humidity 80    
Minimum Humidity 18    
Precipitation  
Precipitation 0.00 in 0.01 in 0.15 in (1990)
Month to date precipitation 0.12  
Year to date precipitation 3.49  
Snow  
Snow 0.00 in 0.00 in - ()
Month to date snowfall 0.0  
Since 1 July snowfall 0.0  
Since 1 September snowfall 0.0  
Snow Depth -    
Sea Level Pressure  
Sea Level Pressure 30.00 in    
Wind  
Wind Speed 7 mph (WNW)    
Max Wind Speed 14 mph    
Max Gust Speed 20 mph    
Visibility 10 miles    
Events      
T = Trace of Precipitation, MM = Missing Value Source: NWS Daily Summary

Daily Weather History Graph

Daily Weather History Graph

Search for Another Location

Airport or City:

Trip Planner

Search our weather history database for the weather conditions in past years. The results will help you decide how hot, cold, wet, or windy it might be!

Date:

Astronomy

Sep. 22, 2013 Rise Set
Actual Time 6:43 AM PDT 6:51 PM PDT
Civil Twilight 6:17 AM PDT 7:17 PM PDT
Nautical Twilight 5:46 AM PDT 7:48 PM PDT
Astronomical Twilight 5:15 AM PDT 8:19 PM PDT
Moon 8:50 PM PDT (9/22) 10:03 AM PDT (9/22)
Length of Visible Light 13h 00m
Length of Day
12h 08m
Waning Gibbous, 88% of the Moon is Illuminated
Sep 22
Waning Gibbous
Sep 26
Last Quarter
Oct 4
New
Oct 11
First Quarter
Oct 18
Full

Hourly Weather History & Observations

Time (PDT) Temp. Windchill Dew Point Humidity Pressure Visibility Wind Dir Wind Speed Gust Speed Precip Events Conditions
12:15 AM 39.2 °F 35.9 °F 26.6 °F 61% 29.87 in 10.0 mi NNW 4.6 mph - N/A   Clear
12:35 AM 37.4 °F 29.8 °F 26.6 °F 65% 29.88 in 10.0 mi South 11.5 mph 19.6 mph N/A   Clear
12:55 AM 39.2 °F 37.0 °F 23.0 °F 52% 29.89 in 10.0 mi West 3.5 mph - N/A   Clear
1:15 AM 35.6 °F 28.0 °F 26.6 °F 70% 29.89 in 10.0 mi WNW 10.4 mph - N/A   Clear
1:35 AM 35.6 °F 28.6 °F 24.8 °F 65% 29.89 in 10.0 mi WNW 9.2 mph - N/A   Clear
1:55 AM 33.8 °F 28.6 °F 24.8 °F 70% 29.88 in 10.0 mi West 5.8 mph - N/A   Clear
2:15 AM 33.8 °F 28.6 °F 24.8 °F 70% 29.88 in 10.0 mi WNW 5.8 mph - N/A   Clear
2:35 AM 35.6 °F 29.2 °F 21.2 °F 56% 29.88 in 10.0 mi West 8.1 mph - N/A   Clear
2:55 AM 35.6 °F 31.7 °F 21.2 °F 56% 29.88 in 10.0 mi NW 4.6 mph 17.3 mph N/A   Clear
3:15 AM 33.8 °F 29.6 °F 21.2 °F 60% 29.89 in 10.0 mi West 4.6 mph - N/A   Clear
3:35 AM 33.8 °F 30.8 °F 23.0 °F 65% 29.89 in 10.0 mi West 3.5 mph - N/A   Clear
3:55 AM 33.8 °F 25.3 °F 23.0 °F 65% 29.89 in 10.0 mi NW 11.5 mph 16.1 mph N/A   Clear
4:15 AM 35.6 °F 26.6 °F 21.2 °F 56% 29.90 in 10.0 mi WNW 13.8 mph 17.3 mph N/A   Clear
4:35 AM 33.8 °F 27.0 °F 23.0 °F 65% 29.91 in 10.0 mi NW 8.1 mph - N/A   Clear
4:55 AM 33.8 °F 27.7 °F 23.0 °F 65% 29.92 in 10.0 mi NW 6.9 mph - N/A   Clear
5:15 AM 32.0 °F 26.4 °F 23.0 °F 69% 29.94 in 10.0 mi NW 5.8 mph - N/A   Clear
5:35 AM 32.0 °F 28.7 °F 23.0 °F 69% 29.95 in 10.0 mi NW 3.5 mph - N/A   Clear
5:55 AM 33.8 °F 26.4 °F 24.8 °F 70% 29.95 in 10.0 mi West 9.2 mph - N/A   Clear
6:15 AM 33.8 °F 26.4 °F 24.8 °F 70% 29.96 in 10.0 mi West 9.2 mph - N/A   Clear
6:35 AM 32.0 °F 24.2 °F 24.8 °F 75% 29.96 in 10.0 mi WNW 9.2 mph - N/A   Clear
6:55 AM 30.2 °F 24.3 °F 24.8 °F 80% 29.98 in 10.0 mi West 5.8 mph - N/A   Clear
7:15 AM 30.2 °F 24.3 °F 24.8 °F 80% 29.99 in 10.0 mi WNW 5.8 mph - N/A   Clear
7:35 AM 32.0 °F 26.4 °F 26.6 °F 80% 29.99 in 10.0 mi West 5.8 mph - N/A   Clear
7:55 AM 35.6 °F 30.7 °F 26.6 °F 70% 30.00 in 10.0 mi West 5.8 mph - N/A   Clear
8:15 AM 37.4 °F 32.1 °F 28.4 °F 70% 30.00 in 10.0 mi West 6.9 mph - N/A   Clear
8:35 AM 41.0 °F 35.8 °F 28.4 °F 61% 30.01 in 10.0 mi West 8.1 mph - N/A   Clear
8:55 AM 41.0 °F 35.2 °F 28.4 °F 61% 30.02 in 10.0 mi West 9.2 mph - N/A   Clear
9:15 AM 42.8 °F 38.6 °F 26.6 °F 53% 30.02 in 10.0 mi West 6.9 mph - N/A   Clear
9:35 AM 44.6 °F 39.7 °F 26.6 °F 49% 30.03 in 10.0 mi West 9.2 mph - N/A   Clear
9:55 AM 46.4 °F 43.5 °F 26.6 °F 46% 30.03 in 10.0 mi NNW 5.8 mph - N/A   Clear
10:15 AM 48.2 °F - 26.6 °F 43% 30.03 in 10.0 mi NW 6.9 mph 16.1 mph N/A   Clear
10:35 AM 50.0 °F - 26.6 °F 40% 30.02 in 10.0 mi NNW 8.1 mph - N/A   Clear
10:55 AM 50.0 °F - 26.6 °F 40% 30.04 in 10.0 mi WNW 9.2 mph - N/A   Clear
11:15 AM 51.8 °F - 24.8 °F 35% 30.04 in 10.0 mi WNW 5.8 mph - N/A   Clear
11:35 AM 53.6 °F - 24.8 °F 33% 30.05 in 10.0 mi NW 4.6 mph - N/A   Clear
11:55 AM 53.6 °F - 24.8 °F 33% 30.04 in 10.0 mi NW 4.6 mph - N/A   Clear
12:15 PM 55.4 °F - 24.8 °F 31% 30.03 in 10.0 mi NNW 8.1 mph - N/A   Clear
12:35 PM 55.4 °F - 23.0 °F 29% 30.02 in 10.0 mi Calm Calm - N/A   Clear
12:55 PM 57.2 °F - 23.0 °F 27% 30.02 in 10.0 mi NNW 4.6 mph - N/A   Clear
1:15 PM 59.0 °F - 23.0 °F 25% 30.02 in 10.0 mi NNE 4.6 mph 16.1 mph N/A   Clear
1:35 PM 60.8 °F - 23.0 °F 23% 30.01 in 10.0 mi NNW 5.8 mph - N/A   Clear
1:55 PM 60.8 °F - 21.2 °F 22% 30.01 in 10.0 mi West 3.5 mph 19.6 mph N/A   Clear
2:15 PM 60.8 °F - 23.0 °F 23% 30.01 in 10.0 mi NW 5.8 mph - N/A   Clear
2:35 PM 62.6 °F - 23.0 °F 22% 30.00 in 10.0 mi NW 5.8 mph - N/A   Clear
2:55 PM 64.4 °F - 21.2 °F 19% 30.00 in 10.0 mi West 5.8 mph - N/A   Clear
3:15 PM 64.4 °F - 23.0 °F 21% 29.99 in 10.0 mi NNW 5.8 mph - N/A   Clear
3:35 PM 64.4 °F - 19.4 °F 18% 30.00 in 10.0 mi Calm Calm - N/A   Clear
3:55 PM 64.4 °F - 23.0 °F 21% 30.00 in 10.0 mi Calm Calm - N/A   Clear
4:15 PM 64.4 °F - 24.8 °F 22% 30.00 in 10.0 mi WNW 11.5 mph 19.6 mph N/A   Clear
4:55 PM 64.4 °F - 26.6 °F 24% 30.01 in 10.0 mi NW 9.2 mph 19.6 mph N/A   Clear
5:55 PM 62.6 °F - 28.4 °F 27% 30.02 in 10.0 mi NW 4.6 mph 19.6 mph N/A   Clear
6:15 PM 60.8 °F - 28.4 °F 29% 30.03 in 10.0 mi WNW 8.1 mph - N/A   Clear
6:35 PM 59.0 °F - 30.2 °F 34% 30.04 in 10.0 mi WNW 5.8 mph - N/A   Clear
7:35 PM 53.6 °F - 33.8 °F 47% 30.07 in 10.0 mi West 3.5 mph - N/A   Clear
7:55 PM 48.2 °F - 33.8 °F 58% 30.09 in 10.0 mi Calm Calm - N/A   Clear
8:15 PM 48.2 °F - 33.8 °F 58% 30.10 in 10.0 mi North 4.6 mph - N/A   Clear
8:35 PM 48.2 °F - 33.8 °F 58% 30.11 in 10.0 mi West 9.2 mph - N/A   Clear
8:55 PM 50.0 °F - 32.0 °F 50% 30.12 in 10.0 mi West 10.4 mph - N/A   Clear
9:15 PM 46.4 °F - 32.0 °F 57% 30.13 in 10.0 mi Calm Calm - N/A   Clear
9:35 PM 46.4 °F 41.9 °F 32.0 °F 57% 30.13 in 10.0 mi West 9.2 mph - N/A   Clear
9:55 PM 44.6 °F 40.7 °F 32.0 °F 61% 30.13 in 10.0 mi WNW 6.9 mph - N/A   Clear
10:15 PM 46.4 °F 41.5 °F 30.2 °F 53% 30.13 in 10.0 mi West 10.4 mph - N/A   Clear
10:35 PM 44.6 °F 39.2 °F 30.2 °F 57% 30.14 in 10.0 mi West 10.4 mph - N/A   Clear
10:55 PM 42.8 °F 41.1 °F 30.2 °F 61% 30.14 in 10.0 mi North 3.5 mph - N/A   Clear
11:15 PM 41.0 °F 39.0 °F 32.0 °F 70% 30.14 in 10.0 mi West 3.5 mph - N/A   Clear
11:35 PM 41.0 °F 38.0 °F 30.2 °F 65% 30.14 in 10.0 mi NNE 4.6 mph - N/A   Clear
11:55 PM 41.0 °F 37.1 °F 32.0 °F 70% 30.15 in 10.0 mi NNW 5.8 mph - N/A   Clear